GW5916 Weather Reports


time (UTC)temp
C
wind
direction
speed
KPH
gust
KPH
rain 1hr
cm
rain 24hr
cm
rain mn
cm
humidity
%
barometer
mb
20260504034908 13 198 3.2 9.7 0.00 0.00 0.00 45 1053.2
20260504034405 13 223 3.2 3.2 0.00 0.00 0.00 47 1053.5
20260504033902 13 230 3.2 4.8 0.00 0.00 0.00 46 1053.4
20260504033400 13 249 1.6 6.4 0.00 0.00 0.00 46 1053.6
20260504032856 13 217 3.2 4.8 0.00 0.00 0.00 46 1053.6
20260504032354 13 249 3.2 3.2 0.00 0.00 0.00 45 1053.6
20260504031850 13 229 1.6 4.8 0.00 0.00 0.00 45 1053.8
20260504031347 14 225 0.0 3.2 0.00 0.00 0.00 44 1053.8
20260504030844 14 211 3.2 3.2 0.00 0.00 0.00 43 1053.8
20260504030341 14 225 1.6 3.2 0.00 0.00 0.00 43 1054.2
20260504025837 14 346 1.6 3.2 0.00 0.00 0.00 43 1054.3
20260504025334 14 235 0.0 4.8 0.00 0.00 0.00 42 1054.2
20260504024831 14 315 0.0 3.2 0.00 0.00 0.00 42 1054.1
20260504024327 14 306 0.0 3.2 0.00 0.00 0.00 42 1053.9
20260504023824 14 272 0.0 3.2 0.00 0.00 0.00 43 1053.9
20260504023321 14 293 0.0 0.0 0.00 0.00 0.00 43 1054.1
20260504022816 15 60 0.0 3.2 0.00 0.00 0.00 43 1053.8
20260504022314 14 36 0.0 3.2 0.00 0.00 0.00 45 1054.0
20260504021810 14 243 1.6 1.6 0.00 0.00 0.00 45 1053.9
20260504021308 14 326 0.0 1.6 0.00 0.00 0.00 45 1053.9
20260504020804 14 310 0.0 1.6 0.00 0.00 0.00 43 1053.9
20260504020301 14 322 0.0 0.0 0.00 0.00 0.00 44 1054.0
20260504015757 15 217 0.0 0.0 0.00 0.00 0.00 42 1053.8
20260504015253 15 217 0.0 1.6 0.00 0.00 0.00 40 1053.6
20260504014749 15 336 0.0 3.2 0.00 0.00 0.00 40 1053.8
20260504014246 15 269 0.0 0.0 0.00 0.00 0.00 40 1053.7
20260504013744 15 269 0.0 3.2 0.00 0.00 0.00 39 1053.7
20260504013241 16 282 1.6 3.2 0.00 0.00 0.00 39 1053.8
20260504012737 16 224 0.0 1.6 0.00 0.00 0.00 39 1053.7
20260504012235 16 222 0.0 1.6 0.00 0.00 0.00 38 1053.8
20260504011732 16 356 0.0 3.2 0.00 0.00 0.00 37 1053.8
20260504011229 17 9 1.6 3.2 0.00 0.00 0.00 36 1053.6
20260504010725 17 266 0.0 1.6 0.00 0.00 0.00 36 1053.6
20260504010221 17 47 0.0 3.2 0.00 0.00 0.00 35 1053.7
20260504005718 18 108 1.6 4.8 0.00 0.00 0.00 35 1053.8
20260504005215 18 290 3.2 3.2 0.00 0.00 0.00 34 1053.7
20260504004712 18 330 0.0 6.4 0.00 0.00 0.00 33 1053.8
20260504004209 19 186 3.2 8.0 0.00 0.00 0.00 32 1053.8
20260504003706 20 313 4.8 4.8 0.00 0.00 0.00 31 1053.7
20260504003203 20 349 3.2 4.8 0.00 0.00 0.00 31 1053.8
20260504002659 20 293 4.8 8.0 0.00 0.00 0.00 31 1053.7
20260504002157 20 45 3.2 9.7 0.00 0.00 0.00 30 1053.9
20260504001655 20 69 4.8 9.7 0.00 0.00 0.00 29 1053.9
20260504001150 20 334 3.2 12.9 0.00 0.00 0.00 29 1053.7
20260504000648 21 317 4.8 6.4 0.00 0.00 0.00 28 1054.0
20260504000145 21 286 4.8 12.9 0.00 0.00 0.00 28 1053.8
20260503235643 21 271 4.8 12.9 0.00 0.00 0.00 29 1053.8
20260503235139 21 345 4.8 8.0 0.00 0.00 0.00 30 1053.8
20260503234638 21 337 3.2 9.7 0.00 0.00 0.00 30 1053.8
20260503234135 21 250 11.3 11.3 0.00 0.00 0.00 29 1053.9
20260503233632 21 318 4.8 16.1 0.00 0.00 0.00 29 1053.7
20260503233127 21 337 4.8 16.1 0.00 0.00 0.00 29 1053.7
20260503232625 21 224 3.2 8.0 0.00 0.00 0.00 30 1053.9
20260503232122 21 348 4.8 17.7 0.00 0.00 0.00 30 1053.9
20260503231620 21 188 3.2 16.1 0.00 0.00 0.00 29 1054.0
20260503231116 21 280 8.0 11.3 0.00 0.00 0.00 30 1053.9
20260503230613 21 311 9.7 17.7 0.00 0.00 0.00 30 1053.8
20260503230110 21 301 11.3 14.5 0.00 0.00 0.00 29 1053.8
20260503225608 21 313 4.8 14.5 0.00 0.00 0.00 28 1053.8
20260503225107 21 294 3.2 12.9 0.00 0.00 0.00 27 1053.9
20260503224605 21 340 4.8 14.5 0.00 0.00 0.00 27 1054.0
20260503224103 21 354 6.4 11.3 0.00 0.00 0.00 27 1053.8
20260503223601 21 345 3.2 16.1 0.00 0.00 0.00 28 1053.8
20260503223056 21 336 8.0 16.1 0.00 0.00 0.00 28 1053.9
20260503222554 21 181 3.2 9.7 0.00 0.00 0.00 28 1053.7
20260503222052 21 291 6.4 17.7 0.00 0.00 0.00 28 1053.8
20260503221550 22 337 9.7 12.9 0.00 0.00 0.00 29 1053.7
20260503221047 21 353 4.8 20.9 0.00 0.00 0.00 30 1053.8
20260503220543 21 359 4.8 11.3 0.00 0.00 0.00 30 1053.7
20260503220040 21 331 9.7 16.1 0.00 0.00 0.00 29 1053.6
20260503215537 21 321 4.8 9.7 0.00 0.00 0.00 29 1053.6
20260503215034 21 274 9.7 17.7 0.00 0.00 0.00 29 1053.7
20260503214532 21 352 8.0 14.5 0.00 0.00 0.00 28 1053.7
20260503214029 22 343 8.0 14.5 0.00 0.00 0.00 28 1053.9
20260503213527 21 337 6.4 14.5 0.00 0.00 0.00 30 1053.8
20260503213023 22 354 6.4 9.7 0.00 0.00 0.00 29 1053.8
20260503212521 21 344 8.0 11.3 0.00 0.00 0.00 31 1053.8
20260503212018 21 15 11.3 14.5 0.00 0.00 0.00 31 1053.9
20260503211515 21 338 8.0 19.3 0.00 0.00 0.00 29 1053.9
20260503211011 22 344 8.0 22.5 0.00 0.00 0.00 30 1054.0
20260503210508 21 284 8.0 12.9 0.00 0.00 0.00 30 1054.1
20260503210003 21 340 11.3 17.7 0.00 0.00 0.00 32 1054.0
20260503205500 21 352 1.6 14.5 0.00 0.00 0.00 33 1054.1
20260503204956 22 320 8.0 24.1 0.00 0.00 0.00 32 1054.2
20260503204454 21 53 3.2 22.5 0.00 0.00 0.00 33 1054.2
20260503203950 22 84 6.4 11.3 0.00 0.00 0.00 31 1054.2
20260503203448 21 312 6.4 17.7 0.00 0.00 0.00 31 1054.2
20260503202944 22 53 4.8 11.3 0.00 0.00 0.00 33 1054.2
20260503202443 22 10 4.8 11.3 0.00 0.00 0.00 33 1054.2
20260503201941 22 323 11.3 17.7 0.00 0.00 0.00 31 1054.1
20260503201438 22 6 4.8 9.7 0.00 0.00 0.00 32 1054.3
20260503200935 21 324 4.8 17.7 0.00 0.00 0.00 31 1054.2
20260503200431 22 317 4.8 14.5 0.00 0.00 0.00 30 1054.4
20260503195928 22 211 1.6 20.9 0.00 0.00 0.00 30 1054.2
20260503195426 22 321 11.3 11.3 0.00 0.00 0.00 30 1054.3
20260503194922 22 343 4.8 16.1 0.00 0.00 0.00 31 1054.4
20260503194419 22 344 9.7 14.5 0.00 0.00 0.00 31 1054.4
20260503193914 22 327 12.9 17.7 0.00 0.00 0.00 32 1054.5
20260503193410 21 336 8.0 14.5 0.00 0.00 0.00 35 1054.5
20260503192906 21 6 9.7 11.3 0.00 0.00 0.00 34 1054.7
20260503192402 21 7 4.8 12.9 0.00 0.00 0.00 33 1054.8
20260503191858 21 95 3.2 9.7 0.00 0.00 0.00 31 1054.4
20260503191355 21 306 12.9 14.5 0.00 0.00 0.00 30 1054.4
20260503190852 22 357 6.4 14.5 0.00 0.00 0.00 32 1054.8
20260503190349 21 356 4.8 11.3 0.00 0.00 0.00 35 1054.4
20260503185846 20 20 9.7 22.5 0.00 0.00 0.00 38 1054.4
20260503185342 21 333 6.4 20.9 0.00 0.00 0.00 34 1054.5
20260503184842 21 257 6.4 9.7 0.00 0.00 0.00 35 1054.4
20260503184339 20 351 8.0 20.9 0.00 0.00 0.00 35 1054.8
20260503183834 21 18 8.0 20.9 0.00 0.00 0.00 36 1054.5
20260503183332 21 25 4.8 11.3 0.00 0.00 0.00 37 1054.9
20260503182829 21 317 3.2 14.5 0.00 0.00 0.00 38 1054.8
20260503182328 21 0 6.4 8.0 0.00 0.00 0.00 36 1054.8
20260503181825 21 31 1.6 14.5 0.00 0.00 0.00 38 1055.1
20260503181322 21 25 17.7 17.7 0.00 0.00 0.00 39 1054.9
20260503180818 20 342 8.0 12.9 0.00 0.00 0.00 37 1055.0
20260503180317 20 357 8.0 16.1 0.00 0.00 0.00 39 1055.0
20260503175813 20 277 3.2 14.5 0.00 0.00 0.00 39 1054.8
20260503175311 20 322 9.7 16.1 0.00 0.00 0.00 41 1054.9
20260503174806 20 319 3.2 14.5 0.00 0.00 0.00 42 1055.0
20260503174304 19 12 14.5 20.9 0.00 0.00 0.00 42 1054.9
20260503173800 19 22 11.3 29.0 0.00 0.00 0.00 41 1055.1
20260503173255 19 11 14.5 19.3 0.00 0.00 0.00 42 1054.9
20260503172753 20 336 4.8 19.3 0.00 0.00 0.00 41 1055.0
20260503172250 18 17 8.0 24.1 0.00 0.00 0.00 44 1054.9
20260503171746 18 8 17.7 22.5 0.00 0.00 0.00 42 1055.0
20260503171243 19 20 6.4 12.9 0.00 0.00 0.00 42 1055.0
20260503170740 20 306 9.7 14.5 0.00 0.00 0.00 41 1054.9
20260503170237 20 310 9.7 12.9 0.00 0.00 0.00 42 1054.9
20260503160159 18 322 11.3 14.5 0.00 0.00 0.00 44 1054.8
20260503150629 17 5 3.2 9.7 0.00 0.00 0.00 43 1054.5
20260503150125 17 126 8.0 9.7 0.00 0.00 0.00 44 1054.4
20260503131019 12 200 12.9 37.0 0.00 0.00 0.00 51 1054.9
20260503130516 12 210 6.4 9.7 0.00 0.00 0.00 51 1055.0
20260503110407 10 214 24.1 33.8 0.00 0.00 0.00 57 1054.7
20260503090257 12 197 12.9 25.7 0.00 0.00 0.00 51 1056.3
20260503081231 12 188 11.3 22.5 0.00 0.00 0.00 49 1057.8
20260503080726 12 178 8.0 17.7 0.00 0.00 0.00 50 1057.8
20260503080224 12 230 8.0 14.5 0.00 0.00 0.00 51 1057.9
20260503072700 12 213 8.0 14.5 0.00 0.00 0.00 50 1057.6
20260503072157 12 227 9.7 9.7 0.00 0.00 0.00 48 1057.6
20260503071654 12 225 9.7 11.3 0.00 0.00 0.00 48 1057.7
20260503071150 12 231 9.7 16.1 0.00 0.00 0.00 48 1057.9
20260503070647 12 193 9.7 16.1 0.00 0.00 0.00 47 1057.8
20260503070146 12 218 9.7 19.3 0.00 0.00 0.00 47 1057.9
20260503060110 12 227 4.8 12.9 0.00 0.00 0.00 47 1058.5
20260503055101 12 244 4.8 17.7 0.00 0.00 0.00 46 1058.7
20260503054557 12 215 8.0 20.9 0.00 0.00 0.00 46 1058.7
20260503054054 12 225 9.7 16.1 0.00 0.00 0.00 47 1058.9
20260503053552 12 207 8.0 12.9 0.00 0.00 0.00 48 1059.1
20260503053050 12 225 6.4 19.3 0.00 0.00 0.00 49 1059.2
20260503052547 12 212 9.7 19.3 0.00 0.00 0.00 48 1059.2
20260503052043 12 214 4.8 17.7 0.00 0.00 0.00 49 1059.2
20260503051538 12 212 9.7 20.9 0.00 0.00 0.00 49 1059.1
20260503051036 12 205 14.5 16.1 0.00 0.00 0.00 48 1059.1
20260503050531 12 211 6.4 8.0 0.00 0.00 0.00 48 1059.2
20260503050029 12 221 8.0 17.7 0.00 0.00 0.00 47 1059.2
20260503045526 12 190 3.2 11.3 0.00 0.00 0.00 48 1059.2
20260503045024 12 212 8.0 11.3 0.00 0.00 0.00 48 1059.3
20260503044520 12 221 8.0 8.0 0.00 0.00 0.00 49 1059.4
20260503044018 12 171 3.2 9.7 0.00 0.00 0.00 49 1059.5
20260503043514 12 214 4.8 6.4 0.00 0.00 0.00 50 1059.5
20260503043010 12 201 3.2 6.4 0.00 0.00 0.00 50 1059.7
20260503042507 12 202 3.2 4.8 0.00 0.00 0.00 51 1059.5
20260503042003 12 326 0.0 1.6 0.00 0.00 0.00 52 1059.6
20260503041500 12 207 1.6 3.2 0.00 0.00 0.00 52 1059.8
20260503040958 12 229 0.0 1.6 0.00 0.00 0.00 51 1059.6
20260503040455 12 3 3.2 3.2 0.00 0.00 0.00 51 1059.8
20260503035952 12 242 3.2 3.2 0.00 0.00 0.00 49 1059.9
20260503035449 12 161 0.0 4.8 0.00 0.00 0.00 49 1059.9
20260503034947 12 218 0.0 8.0 0.00 0.00 0.00 47 1060.1